DW7164 Weather Reports


time (UTC)temp
C
wind
direction
speed
KPH
gust
KPH
rain 1hr
cm
rain 24hr
cm
rain mn
cm
humidity
%
barometer
mb
20260504044602 8 106 1.6 6.4 0.00 0.00 0.00 52 1014.3
20260504043051 9 106 1.6 6.4 0.00 0.00 0.00 51 1014.0
20260504041550 9 106 4.8 11.3 0.00 0.00 0.00 49 1013.8
20260504040047 10 106 4.8 11.3 0.00 0.00 0.00 48 1013.6
20260504034553 10 106 4.8 14.5 0.00 0.00 0.00 45 1013.4
20260504033053 11 106 6.4 16.1 0.00 0.00 0.00 43 1013.1
20260504031543 11 106 6.4 17.7 0.00 0.00 0.00 42 1012.9
20260504030040 11 106 9.7 16.1 0.00 0.00 0.00 42 1012.7
20260504024545 12 106 8.0 20.9 0.00 0.00 0.00 39 1012.6
20260504023039 12 106 9.7 19.3 0.00 0.00 0.00 38 1012.6
20260504021538 12 106 16.1 24.1 0.00 0.00 0.00 37 1012.5
20260504020037 13 106 17.7 27.4 0.00 0.00 0.00 35 1012.3
20260504014536 13 106 19.3 30.6 0.00 0.00 0.00 33 1012.1
20260504013037 14 106 19.3 29.0 0.00 0.00 0.00 33 1012.0
20260504011533 15 106 11.3 25.7 0.00 0.00 0.00 34 1011.9
20260504010043 15 106 11.3 27.4 0.00 0.00 0.00 33 1011.9
20260504004532 15 106 12.9 29.0 0.00 0.00 0.00 30 1012.0
20260504003031 15 106 16.1 30.6 0.00 0.00 0.00 29 1011.9
20260504001531 15 106 19.3 45.1 0.00 0.00 0.00 30 1011.9
20260504000029 16 106 17.7 35.4 0.00 0.00 0.00 29 1011.9
20260503234528 16 106 22.5 35.4 0.00 0.00 0.00 29 1011.7
20260503233027 16 106 19.3 33.8 0.00 0.00 0.00 30 1011.6
20260503231527 15 106 20.9 43.5 0.00 0.00 0.00 30 1011.4
20260503230025 15 106 22.5 41.8 0.00 0.00 0.00 29 1011.3
20260503224524 15 106 30.6 51.5 0.00 0.00 0.00 28 1011.2
20260503223023 16 106 27.4 43.5 0.00 0.00 0.00 29 1011.0
20260503221530 16 106 27.4 49.9 0.00 0.00 0.00 29 1011.0
20260503220021 16 106 33.8 51.5 0.00 0.00 0.00 28 1010.9
20260503214519 16 106 24.1 45.1 0.00 0.00 0.00 30 1010.8
20260503213028 16 106 24.1 49.9 0.00 0.00 0.00 29 1010.7
20260503211520 16 106 24.1 46.7 0.00 0.00 0.00 29 1010.9
20260503210018 16 106 29.0 51.5 0.00 0.00 0.00 31 1010.7
20260503204523 16 106 25.7 46.7 0.00 0.00 0.00 30 1010.7
20260503203017 16 106 22.5 45.1 0.00 0.00 0.00 29 1010.7
20260503201526 16 106 25.7 45.1 0.00 0.00 0.00 30 1010.6
20260503200016 16 106 30.6 53.1 0.00 0.00 0.00 29 1010.5
20260503194518 16 106 19.3 38.6 0.00 0.00 0.00 31 1010.7
20260503193013 16 106 22.5 35.4 0.00 0.00 0.00 31 1010.5
20260503191515 16 106 22.5 41.8 0.00 0.00 0.00 33 1010.6
20260503190020 15 106 32.2 49.9 0.00 0.00 0.00 31 1010.4
20260503184509 15 106 24.1 41.8 0.00 0.00 0.00 33 1010.5
20260503183014 15 106 20.9 40.2 0.00 0.00 0.00 35 1010.5
20260503181519 15 106 19.3 33.8 0.00 0.00 0.00 34 1010.4
20260503180005 15 106 17.7 33.8 0.00 0.00 0.00 36 1010.5
20260503174503 14 106 14.5 35.4 0.00 0.00 0.00 36 1010.3
20260503173007 14 106 16.1 30.6 0.00 0.00 0.00 39 1010.1
20260503171502 13 106 14.5 24.1 0.00 0.00 0.00 39 1010.2
20260503170104 13 106 19.3 29.0 0.00 0.00 0.00 39 1010.2
20260503081558 13 106 14.5 27.4 0.00 0.00 0.00 49 1005.3
20260503071551 14 106 22.5 33.8 0.00 0.00 0.00 45 1005.2